Creston, British Columbia

10:25 PM MST on November 18, 2017 (GMT -0700)
Creston

Weather History for CWJR - October, 2012

Change the Weather History Date:

Saturday, October 27, 2012

  Actual Average (CYXC) Record (CYXC)
Temperature  
Mean Temperature 38 °F -  
Max Temperature 40 °F 43 °F 59 °F (2003)
Min Temperature 35 °F 25 °F 17 °F (2007)
Degree Days  
Heating Degree Days 28    
Moisture  
Dew Point 37 °F    
Average Humidity 95    
Maximum Humidity 98    
Minimum Humidity 89    
Precipitation  
Precipitation 0.04 in - - ()
Sea Level Pressure  
Sea Level Pressure 30.07 in    
Wind  
Wind Speed 1 mph ()    
Max Wind Speed 4 mph    
Max Gust Speed -    
Averages and records for this station are not official NWS values.
T = Trace of Precipitation, MM = Missing Value Source: Averaged Metar Reports

Daily Weather History Graph

Daily Weather History Graph

Search for Another Location

Airport or City:

Trip Planner

Search our weather history database for the weather conditions in past years. The results will help you decide how hot, cold, wet, or windy it might be!

Date:

Astronomy

Oct. 27, 2012 Rise Set
Actual Time 7:26 AM MST 5:32 PM MST
Civil Twilight 6:53 AM MST 6:05 PM MST
Nautical Twilight 6:16 AM MST 6:42 PM MST
Astronomical Twilight 5:39 AM MST 7:19 PM MST
Moon 4:25 PM MST (10/27) 5:18 AM MST (10/27)
Length of Visible Light 11h 11m
Length of Day
10h 06m
Waxing Gibbous, 96% of the Moon is Illuminated
Oct 27
Waxing Gibbous
Oct 29
Full
Nov 6
Last Quarter
Nov 13
New
Nov 20
First Quarter

Hourly Weather History & Observations

Time (MST) Temp. Windchill Dew Point Humidity Pressure Visibility Wind Dir Wind Speed Gust Speed Precip Events Conditions
12:00 AM 36.7 °F - 35.1 °F 94% 30.13 in - ENE 1.2 mph - N/A   Unknown
1:00 AM 36.3 °F - 35.1 °F 95% 30.12 in - Calm Calm - N/A   Unknown
2:00 AM 36.3 °F - 35.2 °F 96% 30.11 in - East 2.3 mph - N/A   Unknown
3:00 AM 36.5 °F - 35.2 °F 95% 30.10 in - East 1.2 mph - N/A   Unknown
4:00 AM 36.1 °F - 35.1 °F 96% 30.10 in - WSW 1.2 mph - N/A   Unknown
5:00 AM 36 °F - 35 °F 97% 30.10 in - Calm Calm - -  
5:00 AM 36.1 °F - 35.4 °F 97% 30.10 in - Calm Calm - N/A   Unknown
7:00 AM 35.8 °F - 35.1 °F 97% 30.11 in - SW 1.2 mph - N/A   Unknown
8:00 AM 36.0 °F - 35.4 °F 98% 30.12 in - Calm Calm - N/A   Unknown
9:00 AM 36.3 °F - 35.8 °F 98% 30.12 in - West 1.2 mph - N/A   Unknown
10:00 AM 37.0 °F - 36.1 °F 97% 30.12 in - WSW 1.2 mph - N/A   Unknown
11:00 AM 38 °F - 36 °F 92% 30.11 in - Calm Calm - -  
11:00 AM 37.8 °F - 36.5 °F 95% 30.11 in - Calm Calm - N/A   Unknown
12:00 PM 38.7 °F - 37.4 °F 95% 30.11 in - SE 1.2 mph - N/A   Unknown
1:00 PM 39.6 °F - 36.7 °F 89% 30.09 in - Calm Calm - N/A   Unknown
2:00 PM 40.1 °F - 37.4 °F 90% 30.08 in - Calm Calm - 0.01 in   Unknown
3:00 PM 39.7 °F 37.6 °F 37.8 °F 93% 30.06 in - East 3.5 mph - 0.01 in   Unknown
4:00 PM 39.6 °F 37.4 °F 37.0 °F 91% 30.05 in - East 3.5 mph - N/A   Unknown
5:00 PM 39 °F - 38 °F 93% 30.04 in - Calm Calm - -  
5:00 PM 39.2 °F - 37.8 °F 95% 30.04 in - Calm Calm - N/A   Unknown
6:00 PM 39.0 °F - 37.6 °F 95% 30.03 in - Calm Calm - N/A   Unknown
7:00 PM 38.7 °F - 36.9 °F 93% 30.01 in - ENE 2.3 mph - N/A   Unknown
8:00 PM 38.5 °F - 37.0 °F 95% 30.00 in - Calm Calm - N/A   Unknown
9:00 PM 38.8 °F - 37.4 °F 95% 29.98 in - NE 1.2 mph - N/A   Unknown
10:00 PM 39.0 °F - 37.6 °F 95% 29.97 in - NNE 1.2 mph - N/A   Unknown
11:00 PM 39 °F - 38 °F 94% 29.97 in - West 1.2 mph - -  
11:00 PM 38.7 °F - 37.9 °F 97% 29.97 in - West 1.2 mph - 0.05 in   Unknown